Voltar ao catálogo

STARLINK-30821

AtivoComunicaçõesVLEO
NORAD 58181·PAYLOAD·🇺🇸 United States

Lançado Oct 30, 2023 de Cape Canaveral Space Force Station

Loading…

Próximas Passagens (próximas 24 horas)

TLE

AtualizadoSource: CelesTrak SupGP

Época: Sep 15, 2026, 03:20 UTC

1 58181C 23167G   26258.13937500  .00045121  00000+0  16344-2 0  2583
2 58181  43.0021 153.3565 0001245 271.7738 335.8692 15.27553949    17

Acompanhe STARLINK-30821 em tempo real com AllMySat

Download on the App Store